Lid_Strength_Index
4 6 8 7 11 13 14 13 12 12 11 9 8 8 9 8 10 12 3 1 1 0 -0 -0 -1 -1 -1 -1 -1 -1 -1 -1 -1 -1 -1 -1 -1 -1 -1 -1 -1 -1 -1 -1 -1 -1 -1 -1 -1
6 6 7 9 13 15 14 12 12 10 8 8 7 8 9 11 6 5 4 1 0 -0 -0 -0 -0 -1 -1 -1 -1 -1 -1 -1 -1 -1 -1 -1 -1 -1 -1 -1 -1 -1 -1 -1 -1 -1 -2 -2 -1
8 6 8 11 14 15 14 12 11 9 9 9 8 7 9 9 6 4 3 0 0 0 -0 -0 -0 -1 -1 -1 -1 -1 -1 -1 -1 -1 -1 -1 -1 -1 -1 -1 -1 -2 -1 -1 -1 -1 -1 -2 -2
8 7 9 12 14 11 12 10 9 10 9 8 7 11 7 6 4 3 1 0 0 0 -0 0 -0 -1 -1 -1 -1 -1 -1 -1 -1 -1 -1 -1 -1 -1 -1 -1 -1 -2 -2 -1 -1 -1 -2 -3 -3
6 9 13 15 14 12 11 10 9 10 10 9 8 10 9 7 3 2 2 1 1 1 0 -0 -0 -1 -1 -1 -1 -1 -1 -1 -1 -1 -1 -1 -1 -1 -1 -1 -1 -1 -1 -1 -1 -1 -2 -3 -3
10 11 15 17 15 12 11 10 10 10 10 9 8 9 8 9 4 3 2 1 0 1 0 -0 1 0 -0 -1 -1 -1 -1 -1 -1 -1 -2 -2 -2 -1 -1 -1 -2 -1 -2 -1 -2 -2 -2 -3 -3
11 13 15 15 14 13 11 10 10 10 11 11 7 9 8 10 8 7 3 3 1 1 1 0 -0 1 2 0 0 -0 -1 -1 -1 -1 -1 -1 -1 -1 -1 -1 -2 -2 -2 -2 -2 -2 -2 -3 -3
10 12 15 14 14 14 11 11 10 10 10 9 7 9 9 8 9 6 3 3 2 1 1 1 0 0 -0 0 2 1 0 -0 -0 -0 -0 0 0 -0 -0 -0 -1 -2 -2 -2 -2 -2 -2 -2 -2
9 13 15 14 14 14 12 13 11 11 12 11 10 8 6 7 8 6 6 4 3 2 2 1 1 -0 -0 -0 1 2 2 1 1 1 1 2 0 0 0 1 -0 -2 -2 -2 -2 -2 -2 -1 -1
12 14 13 13 13 14 13 13 13 13 13 12 12 10 8 8 8 8 8 5 4 4 3 2 0 0 -0 -0 -0 0 0 0 0 -0 -0 -0 0 0 0 2 1 0 -0 -1 -2 -2 -1 0 1
13 14 13 13 13 13 13 14 13 14 14 12 13 12 9 9 9 8 8 6 5 6 8 5 3 0 -0 -0 -0 -0 -0 -0 0 1 1 0 0 1 1 0 1 1 2 1 -0 -0 -0 0 1
14 12 12 12 12 13 14 13 14 14 13 13 12 13 9 9 9 9 9 10 10 10 11 11 10 8 8 7 6 6 5 5 3 1 1 0 0 1 1 2 2 2 1 2 1 1 -0 -0 -0
14 14 13 13 13 14 13 14 15 14 13 12 12 12 13 10 10 10 10 12 10 11 12 12 12 11 10 10 10 9 9 8 9 9 7 1 1 1 1 2 2 2 2 2 3 2 1 1 -0
15 14 14 14 15 14 15 16 16 14 14 14 14 14 14 13 11 13 13 12 12 12 12 12 11 11 9 9 9 9 9 9 9 9 8 7 4 1 2 2 1 1 3 2 2 1 2 1 1
14 16 16 16 15 15 16 16 17 14 14 14 14 14 14 14 14 13 13 13 13 12 12 11 11 10 10 10 10 9 9 8 9 9 8 8 7 5 2 1 3 2 1 1 2 1 0 1 1
17 18 19 17 16 16 17 18 15 15 16 15 15 15 15 15 14 14 13 13 13 12 11 11 9 11 10 10 10 10 9 9 9 9 9 8 7 7 7 5 3 1 1 2 2 2 3 2 2
18 20 19 17 16 17 18 18 16 15 15 15 15 15 15 15 15 14 13 13 12 12 11 11 10 10 10 10 10 10 10 10 9 9 9 8 7 7 7 7 5 3 3 2 2 1 1 2 1
19 20 18 19 18 17 18 17 15 15 15 15 15 15 15 15 14 14 13 13 13 13 12 11 11 11 11 11 11 11 10 10 9 9 8 8 7 7 7 7 7 6 4 3 3 1 1 1 1
17 18 19 18 16 18 18 17 15 15 15 15 15 16 16 15 16 14 14 14 13 13 12 12 12 13 13 13 13 12 12 11 11 10 9 9 9 9 9 8 8 7 6 5 3 2 3 2 2
18 19 19 17 16 18 18 18 15 15 15 16 16 16 16 15 15 15 14 14 13 13 13 13 13 13 13 13 13 12 12 12 11 10 10 10 9 9 9 10 9 9 8 7 5 4 3 3 3
19 19 19 19 18 18 19 18 16 15 15 15 15 15 15 15 14 14 14 14 14 14 14 13 12 12 12 12 12 12 12 12 12 11 11 10 10 9 9 9 9 9 9 8 7 6 5 5 5
19 18 18 18 20 23 19 22 19 17 16 16 16 17 16 15 14 14 14 14 14 14 14 13 12 12 12 12 12 13 13 13 13 12 11 10 10 10 9 9 9 9 9 9 8 7 7 6 7
18 17 18 18 22 25 23 24 19 18 17 17 17 16 16 16 14 14 14 13 14 13 14 13 13 13 12 12 12 12 12 12 12 11 12 11 11 10 10 10 10 10 9 9 9 9 9 8 7
17 18 18 19 22 27 25 23 21 19 18 17 17 16 15 15 14 14 14 13 13 13 13 13 13 13 12 11 11 12 12 13 13 13 13 12 12 11 11 10 10 10 10 10 10 9 9 9 8
18 20 26 25 27 24 22 25 20 17 18 17 16 16 15 14 14 14 14 14 14 14 13 13 13 12 12 12 12 12 13 13 13 13 13 13 12 12 12 12 11 11 11 10 10 10 10 10 10
19 20 23 27 25 23 21 24 19 17 16 16 14 14 14 15 14 14 15 14 14 14 14 14 12 12 12 12 13 13 13 13 13 13 12 12 12 12 12 12 12 11 11 10 10 10 9 9 10
19 20 18 25 31 26 23 20 18 17 17 16 15 14 15 14 15 15 15 14 14 14 14 12 13 13 13 13 13 13 13 13 13 13 12 12 12 12 12 12 12 11 11 11 11 11 10 10 10
18 17 20 20 24 28 24 23 20 19 17 16 15 14 14 14 14 14 13 14 14 14 13 12 13 13 13 13 12 12 11 12 13 12 12 12 12 13 13 13 12 12 11 11 10 10 10 10 10
19 20 19 17 18 23 25 21 16 17 16 15 14 14 15 15 14 13 13 14 14 14 12 13 13 13 13 12 12 11 11 12 12 12 12 12 12 12 12 12 12 11 11 10 10 10 11 11 11
17 18 17 19 21 22 22 21 15 16 14 14 13 13 14 14 13 13 13 13 14 14 13 12 12 12 12 12 11 10 10 10 11 11 11 11 11 11 12 11 11 11 10 10 10 11 11 11 10